Lake Travis Weather Center

Moon Phase Calendar



Lake Travis Water Level
Online Cameras

 


      

Current Conditions in Lago Vista
7/22/2024 5:37:05 PM

82°F
Feels Like 89
Clouds
Humidity
82%
Pressure
29.88"
Wind
3.4 mph (NNW)
Dew Point
76°F
UV Index
2/10 (Low)
Visibility
6 mi

Hourly Forecast

Date & Time Mon, Jul 22
5:00 PM
Mon, Jul 22
6:00 PM
Mon, Jul 22
7:00 PM
Mon, Jul 22
8:00 PM
Mon, Jul 22
9:00 PM
Mon, Jul 22
10:00 PM
Mon, Jul 22
11:00 PM
Tue, Jul 23
12:00 AM
Tue, Jul 23
1:00 AM
Tue, Jul 23
2:00 AM
Tue, Jul 23
3:00 AM
Tue, Jul 23
4:00 AM
Tue, Jul 23
5:00 AM
Tue, Jul 23
6:00 AM
Tue, Jul 23
7:00 AM
Tue, Jul 23
8:00 AM
Tue, Jul 23
9:00 AM
Tue, Jul 23
10:00 AM
Tue, Jul 23
11:00 AM
Tue, Jul 23
12:00 PM
Tue, Jul 23
1:00 PM
Tue, Jul 23
2:00 PM
Tue, Jul 23
3:00 PM
Tue, Jul 23
4:00 PM
Tue, Jul 23
5:00 PM
Tue, Jul 23
6:00 PM
Tue, Jul 23
7:00 PM
Tue, Jul 23
8:00 PM
Tue, Jul 23
9:00 PM
Tue, Jul 23
10:00 PM
Tue, Jul 23
11:00 PM
Wed, Jul 24
12:00 AM
Wed, Jul 24
1:00 AM
Wed, Jul 24
2:00 AM
Wed, Jul 24
3:00 AM
Wed, Jul 24
4:00 AM
Wed, Jul 24
5:00 AM
Wed, Jul 24
6:00 AM
Wed, Jul 24
7:00 AM
Wed, Jul 24
8:00 AM
Wed, Jul 24
9:00 AM
Wed, Jul 24
10:00 AM
Wed, Jul 24
11:00 AM
Wed, Jul 24
12:00 PM
Wed, Jul 24
1:00 PM
Wed, Jul 24
2:00 PM
Wed, Jul 24
3:00 PM
Wed, Jul 24
4:00 PM
Condition
Clouds

Clouds

Clouds

Rain

Rain

Clouds

Clouds

Clouds

Rain

Rain

Clouds

Clouds

Clouds

Rain

Rain

Rain

Clouds

Clouds

Clouds

Rain

Rain

Rain

Clouds

Clouds

Clouds

Clouds

Clouds

Clouds

Clouds

Clouds

Clouds

Clouds

Rain

Clear

Clear

Clear

Clouds

Clouds

Clouds

Clouds

Clouds

Clouds

Clouds

Clouds

Clouds

Clear

Clear

Clear
Temperature 82°F82°F82°F80°F76°F74°F73°F72°F71°F71°F71°F72°F72°F72°F72°F73°F75°F77°F82°F85°F88°F89°F89°F88°F86°F83°F83°F81°F79°F78°F76°F75°F75°F74°F73°F73°F72°F72°F72°F75°F78°F82°F85°F88°F90°F92°F94°F94°F
Feels Like 88°F89°F88°F80°F77°F75°F74°F73°F72°F72°F72°F73°F73°F73°F73°F74°F76°F78°F86°F90°F93°F93°F93°F92°F90°F87°F87°F84°F79°F79°F78°F77°F76°F75°F74°F74°F74°F73°F73°F76°F80°F86°F89°F91°F92°F94°F95°F95°F
Cloudiness 52%40%50%62%72%85%97%97%98%100%99%99%100%100%99%98%100%100%96%96%96%100%98%97%97%98%96%21%40%55%44%35%29%0%2%3%17%15%16%34%26%33%26%21%17%8%2%3%
Visibility 6 mi6 mi6 mi6 mi6 mi6 mi6 mi6 mi6 mi6 mi6 mi6 mi6 mi6 mi6 mi6 mi6 mi6 mi6 mi6 mi6 mi6 mi6 mi6 mi6 mi6 mi6 mi6 mi6 mi6 mi6 mi6 mi6 mi6 mi6 mi6 mi6 mi6 mi6 mi6 mi6 mi6 mi6 mi6 mi6 mi6 mi6 mi6 mi
Precipitation 69%64%61%100%100%80%80%80%100%100%76%86%85%92%95%100%79%71%78%72%76%87%70%41%27%24%19%0%0%0%0%0%20%0%0%0%0%0%0%0%0%0%0%0%0%0%0%0%
Humidity 78%82%78%80%85%84%85%85%90%93%90%89%87%88%91%90%86%78%68%61%57%53%50%54%58%64%64%69%71%76%84%87%90%93%94%95%96%96%96%88%78%69%59%50%43%39%36%35%
Dew Point 74°F76°F74°F73°F71°F69°F67°F67°F68°F68°F68°F68°F68°F68°F69°F69°F70°F70°F70°F70°F70°F69°F68°F69°F69°F69°F69°F69°F69°F70°F71°F71°F71°F71°F71°F71°F70°F70°F70°F70°F71°F70°F69°F67°F65°F63°F62°F62°F
Pressure 29.88"29.88"29.88"29.91"29.94"29.97"29.97"29.97"29.97"29.97"29.97"29.97"29.97"29.97"30"30"30.03"30.03"30.03"30"30"29.97"29.94"29.94"29.94"29.94"29.94"29.97"30"30"30.03"30.03"30.03"30.03"30.03"30.03"30.03"30.03"30.03"30.06"30.06"30.06"30.03"30.03"30"30"29.97"29.97"
Wind Speed 4.2 mph3.6 mph7.4 mph5.9 mph8.2 mph3.9 mph1.6 mph5.8 mph4.7 mph3.7 mph2.7 mph1.4 mph2.5 mph2.6 mph2.7 mph2.8 mph4.4 mph3.4 mph1.8 mph0.5 mph2 mph4.1 mph6.7 mph8.8 mph8.6 mph8.8 mph7.8 mph5 mph5.2 mph7.2 mph7.3 mph6.2 mph5.9 mph5.2 mph5.5 mph4.3 mph2.7 mph1.8 mph1.3 mph1.3 mph2.4 mph3.3 mph4.4 mph6.4 mph8 mph9.1 mph10 mph10.5 mph
Wind
Direction
196°
SSW
234°
SW
340°
NNW
341°
NNW
316°
NW
279°
W
235°
SW
183°
S
258°
WSW
326°
NW
329°
NNW
293°
WNW
299°
WNW
259°
W
236°
SW
228°
SW
243°
WSW
263°
W
235°
SW
129°
SE
128°
SE
153°
SSE
155°
SSE
149°
SSE
141°
SE
162°
SSE
175°
S
169°
S
155°
SSE
160°
SSE
161°
SSE
151°
SSE
162°
SSE
179°
S
186°
S
214°
SW
214°
SW
213°
SSW
228°
SW
319°
NW
355°
N
45°
NE
43°
NE
49°
NE
59°
ENE
70°
ENE
68°
ENE
75°
ENE

Daily Forecast

Date High Low Precip. Humidity
Today
Jul 22

Rain
85 °F
73 °F
100%
73%
Tuesday
Jul 23

Rain
89 °F
71 °F
100%
57%
Wednesday
Jul 24

Rain
94 °F
72 °F
20%
43%
Thursday
Jul 25

Clouds
89 °F
72 °F
0%
52%
Friday
Jul 26

Rain
84 °F
71 °F
97%
60%
Saturday
Jul 27

Rain
86 °F
73 °F
100%
52%
Sunday
Jul 28

Rain
92 °F
72 °F
99%
58%
Monday
Jul 29

Clouds
96 °F
75 °F
0%
44%
Tuesday
Jul 30

Clear
97 °F
74 °F
0%
41%
Wednesday
Jul 31

Clear
97 °F
75 °F
0%
38%
Thursday
Aug 1

Clear
98 °F
74 °F
0%
36%
Friday
Aug 2

Clear
100 °F
76 °F
0%
34%
Saturday
Aug 3

Clear
101 °F
76 °F
0%
34%
Sunday
Aug 4

Clear
102 °F
75 °F
0%
28%
Monday
Aug 5

Clear
104 °F
76 °F
0%
30%
Tuesday
Aug 6

Clear
105 °F
78 °F
0%
31%

Temperature 8-14 Day Outlook



Precipitation 8-14 Day Outlook






About Us
Contact Us
Site Map
Search Site
Advertise With Us
   
Travis.USLakes.info
THE LAKE TRAVIS WEBSITE

Copyright 2024, Lakes Online
Privacy    |    Legal